Simultaneous Nadir Overpasses (SNOs) Predictions

Prediction of SNOs between NOAA-20 and PACE Satellite Orbit:

Table of predicted SNOs for the next 14.0 days since TLE Epoch: 3/8/2025
Index Date (NOAA-20) Time (NOAA-20) Lat,Lon (NOAA-20) SZA (NOAA-20 ) Date (PACE) Time (PACE) Lat,Lon (PACE) SZA (PACE ) Distance(km) Time Diff (sec)
1 03/09/2025 02:20:35 79.71, 108.41 86.40 03/09/2025 02:21:13 79.72, 108.30 86.40 2.45 38
2 03/09/2025 03:11:14 -79.55, -82.85 93.90 03/09/2025 03:10:19 -79.54, -82.77 93.89 1.69 55
3 03/11/2025 07:37:42 -79.69,-150.68 94.52 03/11/2025 07:37:55 -79.69,-150.72 94.52 1.05 13
4 03/13/2025 12:54:48 79.59, -49.11 84.42 03/13/2025 12:54:35 79.60, -49.24 84.45 2.76 13
5 03/15/2025 17:21:18 79.80,-117.62 83.93 03/15/2025 17:22:11 79.80,-117.54 83.89 1.54 53
6 03/15/2025 18:11:53 -79.51, 52.29 96.61 03/15/2025 18:11:14 -79.52, 52.17 96.57 2.44 39
7 03/17/2025 22:38:22 -79.70, -15.92 97.16 03/17/2025 22:38:49 -79.70, -16.01 97.16 2.07 27
8 03/17/2025 23:29:03 79.55, 152.65 82.58 03/17/2025 23:27:56 79.55, 152.80 82.59 3.15 67



Historial Predications of SNOs between NOAA-20 and PACE
